Location: The Saddle
(36.8333°N, 80.3417°W)
Time: 07:17:36
(UTC-05:00)

Vanguard 2 Rocket - Pass Details

Date: 10 December 2023
Orbit: 555 x 3309 km, 32.9° (Epoch: 02 March)

Event Time Altitude Azimuth Distance (km) Brightness Sun altitude
Rises 20:36:37 0° 283° (WNW) 7,292 12.3 -41.5°
Reaches altitude 10° 20:42:50 10° 273° (W) 6,235 11.8 -42.7°
Maximum altitude 20:57:01 26° 227° (SW) 4,465 10.5 -45.6°
Enters shadow 21:08:10 10° 177° (S) 4,811 10.5 -47.8°
Drops below altitude 10° 21:08:13 10° 177° (S) 4,816 - -47.8°
Sets 21:12:17 0° 165° (SSE) 5,411 - -48.6°
